FW5886 Weather Reports


time (UTC)temp
C
wind
direction
speed
KPH
gust
KPH
rain 1hr
cm
rain 24hr
cm
rain mn
cm
humidity
%
barometer
mb
20260906233105 36 320 11.3 20.9 0.00 0.00 0.00 40 1010.9
20260906231559 36 320 8.0 25.7 0.00 0.00 0.00 39 1011.1
20260906230109 36 320 9.7 20.9 0.00 0.00 0.00 39 1011.0
20260906224602 36 320 16.1 22.5 0.00 0.00 0.00 38 1011.1
20260906223101 36 320 9.7 24.1 0.00 0.00 0.00 38 1011.0
20260906221557 37 320 8.0 27.4 0.00 0.00 0.00 39 1011.2
20260906220055 36 320 9.7 19.3 0.00 0.00 0.00 40 1011.2
20260906214600 37 320 14.5 29.0 0.00 0.00 0.00 39 1011.4
20260906213059 37 320 11.3 25.7 0.00 0.00 0.00 39 1011.5
20260906211557 37 320 11.3 20.9 0.00 0.00 0.00 40 1011.7
20260906204631 37 66 4.8 19.3 0.00 0.00 0.00 40 1012.0
20260906203055 36 320 4.8 24.1 0.00 0.00 0.00 40 1012.2
20260906201615 36 320 8.0 17.7 0.00 0.00 0.00 42 1012.4
20260906194605 36 320 3.2 19.3 0.00 0.00 0.00 44 1012.6
20260906193104 36 320 11.3 19.3 0.00 0.00 0.00 44 1012.9
20260906191553 36 320 6.4 19.3 0.00 0.00 0.00 45 1013.0
20260906190100 36 320 9.7 25.7 0.00 0.00 0.00 44 1013.3
20260906184558 35 320 9.7 22.5 0.00 0.00 0.00 45 1013.2
20260906183104 36 320 6.4 22.5 0.00 0.00 0.00 46 1013.4
20260906181606 35 320 0.0 22.5 0.00 0.00 0.00 48 1013.6
20260906180100 35 320 6.4 19.3 0.00 0.00 0.00 47 1013.8
20260906174613 35 320 8.0 17.7 0.00 0.00 0.00 54 1014.0
20260906173108 34 320 9.7 17.7 0.00 0.00 0.00 50 1014.3
20260906171603 33 320 3.2 20.9 0.00 0.00 0.00 52 1014.6
20260906170111 33 320 11.3 22.5 0.00 0.00 0.00 53 1014.9
20260906164604 33 320 6.4 16.1 0.00 0.00 0.00 54 1015.0
20260906163105 33 320 4.8 9.7 0.00 0.00 0.00 55 1015.0
20260906161609 32 320 4.8 14.5 0.00 0.00 0.00 58 1014.9
20260906160109 32 320 1.6 12.9 0.00 0.00 0.00 61 1014.9
20260906154558 31 320 0.0 9.7 0.00 0.00 0.00 63 1015.0
20260906153121 31 320 3.2 9.7 0.00 0.00 0.00 64 1015.0
20260906151558 30 320 1.6 9.7 0.00 0.00 0.00 67 1014.8
20260906150058 30 320 4.8 9.7 0.00 0.00 0.00 68 1014.8
20260906144615 29 320 6.4 12.9 0.00 0.00 0.00 69 1014.8
20260906143106 29 320 3.2 8.0 0.00 0.00 0.00 69 1014.6
20260906141557 28 0 1.6 8.0 0.00 0.00 0.00 71 1014.5
20260906140110 28 320 3.2 8.0 0.00 0.00 0.00 73 1014.6
20260906134629 27 320 1.6 6.4 0.00 0.00 0.00 74 1014.4
20260906133104 27 0 0.0 6.4 0.00 0.00 0.00 76 1014.4
20260906131606 26 0 3.2 8.0 0.00 0.00 0.00 77 1014.3
20260906130107 26 0 0.0 0.0 0.00 0.00 0.00 79 1014.3
20260906124609 25 0 0.0 3.2 0.00 0.00 0.00 80 1014.2
20260906123058 25 0 0.0 3.2 0.00 0.00 0.00 81 1014.0
20260906121607 25 0 1.6 4.8 0.00 0.00 0.00 81 1014.0
20260906120108 25 320 0.0 4.8 0.00 0.00 0.00 81 1014.0
20260906114622 25 0 1.6 6.4 0.00 0.00 0.00 80 1013.7
20260906113056 25 0 0.0 0.0 0.00 0.00 0.00 80 1013.5
20260906111625 25 0 0.0 0.0 0.00 0.00 0.00 80 1013.5
20260906104604 25 0 0.0 0.0 0.00 0.00 0.00 79 1013.3
20260906103056 25 0 0.0 0.0 0.00 0.00 0.00 79 1013.3
20260906101557 25 0 0.0 0.0 0.00 0.00 0.00 79 1013.0
20260906100058 25 0 0.0 0.0 0.00 0.00 0.00 78 1013.0
20260906094558 26 0 0.0 0.0 0.00 0.00 0.00 77 1012.8
20260906093104 26 0 0.0 0.0 0.00 0.00 0.00 77 1012.6
20260906091552 26 0 0.0 0.0 0.00 0.00 0.00 76 1012.6
20260906090115 26 0 0.0 3.2 0.00 0.00 0.00 76 1012.5
20260906084610 26 320 1.6 8.0 0.00 0.00 0.00 75 1012.4
20260906083056 26 0 1.6 6.4 0.00 0.00 0.00 75 1012.4
20260906081606 26 320 1.6 8.0 0.00 0.00 0.00 74 1012.6
20260906074607 27 320 1.6 8.0 0.00 0.00 0.00 73 1012.6
20260906073107 27 320 4.8 12.9 0.00 0.00 0.00 73 1012.7
20260906071554 27 320 3.2 14.5 0.00 0.00 0.00 73 1012.7
20260906070125 27 320 6.4 14.5 0.00 0.00 0.00 72 1013.0
20260906064556 27 320 4.8 14.5 0.00 0.00 0.00 72 1013.0
20260906063058 28 0 3.2 9.7 0.00 0.00 0.00 72 1013.1
20260906061627 28 320 3.2 12.9 0.00 0.00 0.00 71 1013.3
20260906060056 28 320 3.2 9.7 0.00 0.00 0.00 71 1013.3
20260906054602 28 0 3.2 9.7 0.00 0.00 0.00 70 1013.2
20260906053059 28 320 3.2 9.7 0.00 0.00 0.00 70 1013.0
20260906051604 28 320 3.2 9.7 0.00 0.00 0.00 70 1013.0
20260906050115 28 320 6.4 12.9 0.00 0.00 0.00 69 1013.0
20260906044603 29 0 1.6 9.7 0.00 0.00 0.00 69 1013.0
20260906043109 29 320 4.8 12.9 0.00 0.00 0.00 68 1013.0
20260906041601 29 320 3.2 8.0 0.00 0.00 0.00 67 1012.9
20260906040115 30 320 3.2 8.0 0.00 0.00 0.00 66 1012.9
20260906034559 30 320 3.2 9.7 0.00 0.00 0.00 65 1012.9
20260906033057 30 190 3.2 14.5 0.00 0.00 0.00 64 1013.0
20260906031603 30 320 8.0 19.3 0.00 0.00 0.00 64 1013.1
20260906030107 30 320 3.2 24.1 0.00 0.00 0.00 63 1013.0
20260906024603 30 320 6.4 22.5 0.00 0.00 0.00 62 1013.0
20260906023122 30 320 9.7 22.5 0.00 0.00 0.00 62 1012.7
20260906021600 30 320 9.7 17.7 0.00 0.00 0.00 61 1012.4
20260906020104 31 320 9.7 24.1 0.00 0.00 0.00 61 1012.2
20260906014626 31 320 8.0 27.4 0.00 0.00 0.00 60 1011.9
20260906013100 31 320 12.9 30.6 0.00 0.00 0.00 59 1011.8
20260906011558 31 320 14.5 35.4 0.00 0.00 0.00 57 1011.5
20260906010058 32 320 17.7 35.4 0.00 0.00 0.00 55 1011.5
20260906004613 33 320 14.5 30.6 0.00 0.00 0.00 53 1011.5
20260906003100 35 320 19.3 38.6 0.00 0.00 0.00 48 1011.3
20260906001557 35 320 8.0 16.1 0.00 0.00 0.00 41 1011.1
20260906000107 36 320 8.0 20.9 0.00 0.00 0.00 41 1011.0
20260905234604 36 320 9.7 17.7 0.00 0.00 0.00 39 1011.0